Terug naar catalogus

STARLINK-5023

ActiefCommunicatieVLEO
NORAD 53919·PAYLOAD·🇺🇸 United States

Gelanceerd Sep 24, 2022 vanaf Cape Canaveral Space Force Station

Loading…

Volgende Passages (komende 24 uur)

TLE

VersSource: CelesTrak SupGP

Epoch: Sep 15, 2026, 03:08 UTC

1 53919C 22119AK  26258.13104167  .00013295  00000+0  42755-3 0  2581
2 53919  53.1590 170.1756 0001487  84.7214 271.4156 15.31694105    17

Volg STARLINK-5023 in realtime met AllMySat

Download on the App Store